Terminal Aerodrome Forecast
Issued by NWS Dodge City, KS

Home | Current Version | Previous Version | Text Only | Print | Product List | Glossary On
Versions: 1 2 3 4 5 6 7 8 9 10 11 12 13 14 15 16 17 18 19 20 21 22 23 24 25 26 27 28 29 30 31 32 33 34 35 36 37 38 39 40 41 42 43 44 45 46 47
000
FTUS43 KDDC 281125
TAFDDC
TAF
KDDC 281125Z 2812/0112 16013KT 1 1/2SM -SN BR OVC020
      TEMPO 2812/2814 3SM -SN BR OVC025
     FM281600 17014KT P6SM -SN BKN018
     FM010000 14008KT 2SM -SN BR OVC008=

USA.gov is the U.S. government's official web portal to all federal, state and local government web resources and services.